| time (UTC) | temp C | wind direction | speed KPH | gust KPH | rain 1hr cm | rain 24hr cm | rain mn cm | humidity % | barometer mb |
| 20260504034613 | 15 | 0.0 | 0.0 | 0.00 | 0.00 | 0.00 | 64 | 994.2 | |
| 20260504033609 | 16 | 288 | 1.6 | 3.2 | 0.00 | 0.00 | 0.00 | 60 | 994.1 |
| 20260504032606 | 16 | 284 | 1.6 | 3.2 | 0.00 | 0.00 | 0.00 | 60 | 994.1 |
| 20260504031602 | 16 | 291 | 3.2 | 6.4 | 0.00 | 0.00 | 0.00 | 59 | 994.1 |
| 20260504030558 | 16 | 293 | 1.6 | 3.2 | 0.00 | 0.00 | 0.00 | 59 | 994.2 |
| 20260504025549 | 16 | 293 | 1.6 | 6.4 | 0.00 | 0.00 | 0.00 | 58 | 994.3 |
| 20260504024545 | 16 | 294 | 3.2 | 6.4 | 0.00 | 0.00 | 0.00 | 60 | 994.4 |
| 20260504023541 | 16 | 276 | 3.2 | 6.4 | 0.00 | 0.00 | 0.00 | 61 | 994.5 |
| 20260504022538 | 16 | 273 | 3.2 | 6.4 | 0.00 | 0.00 | 0.00 | 61 | 994.5 |
| 20260504021534 | 16 | 267 | 3.2 | 6.4 | 0.00 | 0.00 | 0.00 | 61 | 994.6 |
| 20260504020530 | 16 | 274 | 3.2 | 6.4 | 0.00 | 0.00 | 0.00 | 61 | 994.4 |
| 20260504015526 | 16 | 264 | 4.8 | 9.7 | 0.00 | 0.00 | 0.00 | 59 | 994.3 |
| 20260504014523 | 16 | 263 | 3.2 | 6.4 | 0.00 | 0.00 | 0.00 | 57 | 994.2 |
| 20260504013519 | 16 | 244 | 3.2 | 3.2 | 0.00 | 0.00 | 0.00 | 55 | 994.1 |
| 20260504012515 | 17 | 271 | 3.2 | 6.4 | 0.00 | 0.00 | 0.00 | 54 | 994.0 |
| 20260504011611 | 17 | 264 | 3.2 | 6.4 | 0.00 | 0.00 | 0.00 | 54 | 993.8 |
| 20260504010607 | 17 | 259 | 3.2 | 6.4 | 0.00 | 0.00 | 0.00 | 53 | 993.7 |
| 20260504005604 | 17 | 275 | 3.2 | 6.4 | 0.00 | 0.00 | 0.00 | 53 | 993.7 |
| 20260504004600 | 17 | 270 | 4.8 | 6.4 | 0.00 | 0.00 | 0.00 | 52 | 993.7 |
| 20260504003556 | 18 | 280 | 4.8 | 6.4 | 0.00 | 0.00 | 0.00 | 51 | 993.4 |
| 20260504002552 | 18 | 289 | 1.6 | 6.4 | 0.00 | 0.00 | 0.00 | 52 | 993.3 |
| 20260504001549 | 18 | 274 | 3.2 | 3.2 | 0.00 | 0.00 | 0.00 | 52 | 993.4 |
| 20260504000545 | 18 | 270 | 1.6 | 3.2 | 0.00 | 0.00 | 0.00 | 51 | 993.4 |
| 20260503235541 | 18 | 270 | 1.6 | 3.2 | 0.00 | 0.00 | 0.00 | 50 | 993.4 |
| 20260503234538 | 18 | 0.0 | 3.2 | 0.00 | 0.00 | 0.00 | 50 | 993.3 | |
| 20260503233534 | 18 | 277 | 1.6 | 3.2 | 0.00 | 0.00 | 0.00 | 49 | 993.2 |
| 20260503232530 | 18 | 301 | 1.6 | 6.4 | 0.00 | 0.00 | 0.00 | 48 | 993.1 |
| 20260503231526 | 18 | 288 | 1.6 | 6.4 | 0.00 | 0.00 | 0.00 | 49 | 993.2 |
| 20260503230522 | 17 | 23 | 0.0 | 3.2 | 0.00 | 0.00 | 0.00 | 53 | 993.1 |
| 20260503225518 | 17 | 0.0 | 0.0 | 0.00 | 0.00 | 0.00 | 52 | 993.1 | |
| 20260503224615 | 18 | 299 | 6.4 | 12.9 | 0.00 | 0.00 | 0.00 | 50 | 993.3 |
| 20260503223611 | 19 | 267 | 3.2 | 6.4 | 0.00 | 0.00 | 0.00 | 46 | 993.0 |
| 20260503222607 | 19 | 205 | 3.2 | 6.4 | 0.00 | 0.00 | 0.00 | 45 | 992.8 |
| 20260503221604 | 19 | 198 | 3.2 | 6.4 | 0.00 | 0.00 | 0.00 | 45 | 992.7 |
| 20260503220600 | 19 | 168 | 3.2 | 9.7 | 0.00 | 0.00 | 0.00 | 45 | 992.6 |
| 20260503215556 | 19 | 181 | 1.6 | 3.2 | 0.00 | 0.00 | 0.00 | 45 | 992.7 |
| 20260503214552 | 19 | 212 | 3.2 | 6.4 | 0.00 | 0.00 | 0.00 | 44 | 992.8 |
| 20260503213549 | 19 | 250 | 3.2 | 11.3 | 0.00 | 0.00 | 0.00 | 44 | 992.8 |
| 20260503212545 | 20 | 244 | 3.2 | 6.4 | 0.00 | 0.00 | 0.00 | 43 | 992.6 |
| 20260503211541 | 20 | 190 | 4.8 | 9.7 | 0.00 | 0.00 | 0.00 | 41 | 992.4 |
| 20260503210537 | 20 | 165 | 6.4 | 12.9 | 0.00 | 0.00 | 0.00 | 41 | 992.2 |
| 20260503205533 | 21 | 141 | 8.0 | 17.7 | 0.00 | 0.00 | 0.00 | 39 | 992.3 |
| 20260503204600 | 21 | 154 | 6.4 | 11.3 | 0.00 | 0.00 | 0.00 | 39 | 992.2 |
| 20260503203556 | 21 | 173 | 6.4 | 12.9 | 0.00 | 0.00 | 0.00 | 39 | 992.3 |
| 20260503202552 | 21 | 176 | 6.4 | 11.3 | 0.00 | 0.00 | 0.00 | 38 | 992.4 |
| 20260503201548 | 21 | 130 | 4.8 | 11.3 | 0.00 | 0.00 | 0.00 | 39 | 992.3 |
| 20260503200545 | 21 | 175 | 6.4 | 12.9 | 0.00 | 0.00 | 0.00 | 39 | 992.4 |
| 20260503195541 | 21 | 130 | 4.8 | 11.3 | 0.00 | 0.00 | 0.00 | 39 | 992.5 |
| 20260503194537 | 21 | 139 | 4.8 | 6.4 | 0.00 | 0.00 | 0.00 | 39 | 992.5 |
| 20260503193533 | 21 | 166 | 4.8 | 11.3 | 0.00 | 0.00 | 0.00 | 38 | 992.5 |
| 20260503192530 | 21 | 148 | 4.8 | 11.3 | 0.00 | 0.00 | 0.00 | 38 | 992.4 |
| 20260503191526 | 22 | 154 | 4.8 | 6.4 | 0.00 | 0.00 | 0.00 | 36 | 992.4 |
| 20260503190522 | 22 | 135 | 4.8 | 11.3 | 0.00 | 0.00 | 0.00 | 36 | 992.4 |
| 20260503185518 | 22 | 181 | 3.2 | 9.7 | 0.00 | 0.00 | 0.00 | 35 | 992.5 |
| 20260503184615 | 22 | 166 | 1.6 | 6.4 | 0.00 | 0.00 | 0.00 | 34 | 992.5 |
| 20260503183611 | 22 | 164 | 3.2 | 6.4 | 0.00 | 0.00 | 0.00 | 34 | 992.4 |
| 20260503182607 | 23 | 161 | 3.2 | 6.4 | 0.00 | 0.00 | 0.00 | 33 | 992.2 |
| 20260503181603 | 23 | 163 | 4.8 | 9.7 | 0.00 | 0.00 | 0.00 | 32 | 992.3 |
| 20260503180559 | 23 | 177 | 3.2 | 6.4 | 0.00 | 0.00 | 0.00 | 32 | 992.3 |
| 20260503175556 | 23 | 165 | 4.8 | 9.7 | 0.00 | 0.00 | 0.00 | 31 | 992.3 |
| 20260503174552 | 24 | 168 | 3.2 | 6.4 | 0.00 | 0.00 | 0.00 | 31 | 992.3 |
| 20260503173548 | 24 | 168 | 3.2 | 6.4 | 0.00 | 0.00 | 0.00 | 30 | 992.2 |
| 20260503172545 | 25 | 189 | 3.2 | 6.4 | 0.00 | 0.00 | 0.00 | 30 | 992.3 |
| 20260503171541 | 25 | 207 | 4.8 | 9.7 | 0.00 | 0.00 | 0.00 | 29 | 992.3 |
| 20260503170537 | 25 | 134 | 8.0 | 14.5 | 0.00 | 0.00 | 0.00 | 28 | 992.3 |
| 20260503150522 | 27 | 177 | 8.0 | 14.5 | 0.00 | 0.00 | 0.00 | 27 | 992.8 |
| 20260503130537 | 27 | 278 | 9.7 | 20.9 | 0.00 | 0.00 | 0.00 | 31 | 994.2 |
| 20260503110551 | 26 | 242 | 8.0 | 17.7 | 0.00 | 0.00 | 0.00 | 33 | 995.3 |
| 20260503081541 | 22 | 260 | 8.0 | 17.7 | 0.00 | 0.00 | 0.00 | 36 | 996.7 |
| 20260503080538 | 22 | 262 | 9.7 | 17.7 | 0.00 | 0.00 | 0.00 | 36 | 996.8 |
| 20260503072522 | 21 | 248 | 3.2 | 9.7 | 0.00 | 0.00 | 0.00 | 43 | 996.8 |
| 20260503071518 | 20 | 215 | 6.4 | 11.3 | 0.00 | 0.00 | 0.00 | 44 | 996.9 |
| 20260503070614 | 20 | 216 | 8.0 | 14.5 | 0.00 | 0.00 | 0.00 | 46 | 996.9 |
| 20260503054537 | 16 | 184 | 4.8 | 11.3 | 0.00 | 0.00 | 0.00 | 50 | 997.0 |
| 20260503053534 | 16 | 187 | 6.4 | 11.3 | 0.00 | 0.00 | 0.00 | 50 | 997.0 |
| 20260503052530 | 15 | 174 | 4.8 | 9.7 | 0.00 | 0.00 | 0.00 | 50 | 996.8 |
| 20260503051526 | 15 | 186 | 6.4 | 9.7 | 0.00 | 0.00 | 0.00 | 50 | 996.9 |
| 20260503050522 | 15 | 177 | 6.4 | 9.7 | 0.00 | 0.00 | 0.00 | 51 | 996.8 |
| 20260503045518 | 14 | 180 | 4.8 | 6.4 | 0.00 | 0.00 | 0.00 | 51 | 996.8 |
| 20260503044614 | 14 | 184 | 6.4 | 9.7 | 0.00 | 0.00 | 0.00 | 50 | 996.9 |
| 20260503043611 | 14 | 161 | 6.4 | 9.7 | 0.00 | 0.00 | 0.00 | 51 | 996.8 |
| 20260503042607 | 14 | 185 | 4.8 | 9.7 | 0.00 | 0.00 | 0.00 | 51 | 996.8 |
| 20260503041557 | 14 | 176 | 4.8 | 9.7 | 0.00 | 0.00 | 0.00 | 50 | 996.7 |
| 20260503040553 | 14 | 171 | 4.8 | 9.7 | 0.00 | 0.00 | 0.00 | 51 | 996.7 |
| 20260503035550 | 14 | 184 | 4.8 | 6.4 | 0.00 | 0.00 | 0.00 | 51 | 996.8 |